Tracking 19476 objects as of 18-Jan-2019
HD Live streaming from Space Station
objects crossing your sky now

USA 200

Track USA 200 now!
USA 200 is classified as:


NORAD ID: 32706
Int'l Code: 2008-010A
Perigee: 1,615.2 km
Apogee: 38,753.0 km
Inclination: 63.3 °
Period: 717.8 minutes
Semi major axis: 26555 km
RCS: Unknown
Launch date: March 13, 2008
Source: United States (US)
Launch site: AIR FORCE WESTERN TEST RANGE (AFWTR)

According to SpaceflightNow.com, this is a secretive spy satellite.
aabbcc
Your satellite tracking list
Your tracking list is empty




NASA's NSSDC Master Catalog

Two Line Element Set (TLE):
1 32706U 08010A   18325.71052083 0.00000000  00000-0  00000-0 0    05
2 32706  63.2818 278.7679 6992592 272.2817  16.1805  2.00623000    09
Source of the keplerian elements: McCants